Flag for Uruguay Weather past 2 weeks in Canelones, Uruguay

Now
75 °F

Clear.


Feels Like: 76 °F
Forecast: 68 / 83 °F
Wind: 12 mph from Northeast

Location: Carrasco

Current Time: Mar 1, 2015 at 11:24:50 PM

Latest Report: Mar 1, 2015 at 11:00 PM


Visibility: 10 mi

Pressure: 29.86 "Hg

Humidity: 78%

Dew point: 68 °F

Location of CanelonesLocation

Historic Weather in Canelones — Graph

°F

Canelones temperature yesterday

Maximum temperature yesterday: 75 °F (at 2:00 PM)
Minimum temperature yesterday: 54 °F (at 8:00 AM)
Average temperature yesterday: 67 °F

Past Weeks' High & Low Weather Summary

 TemperatureHumidityPressure
High90 °F (Feb 24, 2:00 PM)100% (Feb 19, 9:00 AM)30.15 "Hg (Feb 19, 9:00 AM)
Low54 °F (Feb 28, 8:00 AM)37% (Feb 17, 2:00 PM)29.62 "Hg (Feb 18, 8:00 PM)
Average72 °F73%29.97 "Hg
* Reported Feb 14 10:00 PM — Mar 1 10:00 PM, Canelones, Weather by CustomWeather, © 2015

Note: Actual official high and low records may vary slightly from our data, if they occured in-between our weather recording intervals... More about our weather records

Advertising

Canelones weather history for previous 24 hours

 ConditionsComfort  
Time TempWeatherWind HumidityBarometerVisibility
10:00 PM
Sun, Mar 1
75 °FClear.6 mph78%29.89 "Hg10 mi
9:00 PM77 °FClear.3 mph74%29.89 "Hg10 mi
8:00 PM77 °FSunny.6 mph74%29.89 "Hg10 mi
7:00 PM77 °FSunny.8 mph69%29.89 "Hg10 mi
6:00 PM81 °FSunny.8 mph58%29.92 "Hg10 mi
5:00 PM84 °FSunny.9 mph43%29.92 "Hg10 mi
4:00 PM82 °FSunny.14 mph40%29.95 "Hg10 mi
3:00 PM81 °FSunny.12 mph45%29.98 "Hg10 mi
2:00 PM81 °FSunny.12 mph45%29.98 "Hg10 mi
1:00 PM79 °FSunny.16 mph48%29.98 "Hg10 mi
12:00 PM77 °FSunny.13 mph51%30.01 "Hg10 mi
11:00 AM73 °FSunny.14 mph61%30.01 "Hg10 mi
10:00 AM72 °FSunny.16 mph65%30.01 "Hg10 mi
9:00 AM66 °FSunny.10 mph78%30.01 "Hg10 mi
8:00 AM64 °FSunny.10 mph83%30.01 "Hg10 mi
7:00 AM64 °FClear.10 mph83%30.01 "Hg10 mi
6:00 AM64 °FClear.9 mph78%30.01 "Hg10 mi
5:00 AM64 °FClear.9 mph78%30.01 "Hg10 mi
4:00 AM64 °FClear.8 mph78%30.01 "Hg10 mi
3:00 AM66 °FClear.9 mph68%30.04 "Hg10 mi
2:00 AM66 °FClear.10 mph68%30.04 "Hg10 mi
1:00 AM66 °FClear.12 mph68%30.04 "Hg10 mi
12:00 AM68 °FClear.12 mph64%30.04 "Hg10 mi
11:00 PM
Sat, Feb 28
70 °FClear.12 mph64%30.04 "Hg10 mi
Weather by CustomWeather, © 2015

See weather overviewHow to use our weather pages